Simultaneous Nadir Overpasses (SNOs) Predictions

Prediction of SNOs between GOES-14 and NOAA-20 Satellite Orbit:

Table of predicted SNOs for the next 14.0 days since TLE Epoch: 5/29/2020
Index Date Time (GOES-14) GOES-14 Lat,Lon NOAA-20 Lat,Lon Distance(km) Time Diff (sec)
1 05/30/2020 08:20:40 0.03,-104.15 -0.09,-103.59 63.65 80
2 06/01/2020 20:21:12 -0.02,-104.30 -0.04,-104.37 8.19 80
3 06/04/2020 08:24:14 -0.00,-104.16 0.22,-105.10 108.06 80
4 06/05/2020 08:08:09 0.01,-104.16 -0.82,-100.58 409.32 80
5 06/06/2020 20:27:26 0.02,-104.32 -0.34,-105.89 179.06 80
6 06/07/2020 20:11:20 0.01,-104.32 0.64,-101.35 337.77 80
7 06/09/2020 08:30:27 -0.04,-104.17 0.53,-106.62 280.09 80
8 06/10/2020 08:14:23 -0.02,-104.17 -0.51,-102.09 237.54 80
9 06/11/2020 20:33:39 0.05,-104.35 -0.64,-107.40 349.06 80




NCC Satellite Simultaneous Nadir Overpasses (SNOs) Prediction Service
